Regional Weather Roundup
Issued by NWS

Home | Current Version | Previous Version | Graphics & Text | Print | Product List | Glossary On
Versions: 1 2 3 4 5 6 7 8 9 10 11 12 13 14 15 16 17 18 19 20 21 22 23 24 25 26 27 28 29 30 31 32 33 34 35 36 37 38 39 40 41 42 43 44 45 46 47 48 49 50
000
ASUS43 KFSD 021010
RWRSD

WEATHER ROUNDUP FOR SOUTH DAKOTA
NATIONAL WEATHER SERVICE SIOUX FALLS SD
500 AM CDT THU JUL 02 2015

NOTE: "FAIR" INDICATES FEW OR NO CLOUDS BELOW 12,000 FEET WITH NO
SIGNIFICANT WEATHER AND/OR OBSTRUCTIONS TO VISIBILITY.


SDZ001>005-009-010-012>017-021100-
NORTHWEST AND NORTH CENTRAL SOUTH DAKOTA

CITY           SKY/WX    TMP DP  RH WIND       PRES   REMARKS
BUFFALO          N/A     59  56  89 NW9       29.99S
FAITH            N/A     62  59  90 NW7       29.98S
MOBRIDGE       RAIN      67  61  81 SW5       29.92S
$$

SDZ012>016-024>037-041>051-057-063-072>074-021100-
SOUTHWEST AND SOUTH CENTRAL SOUTH DAKOTA

CITY           SKY/WX    TMP DP  RH WIND       PRES   REMARKS
RAPID CTY ARPT MOCLDY    61  59  93 NW9       30.02S
PIERRE         MOCLDY    66  66 100 CALM      29.90F FOG
CUSTER         MOCLDY    56  53  90 W7        30.15F
ELLSWORTH AFB  MOCLDY    63  61  93 N12       30.02R
PHILIP         MOCLDY    66  65  96 SW8       29.95S
PINE RIDGE     CLOUDY    61  58  90 SW6       30.03F
SPEARFISH      FAIR      59  57  94 NE5       30.10R
WINNER         PTSUNNY   67  64  90 SE5       29.92F FOG
$$

SDZ004>011-016>023-039-040-021100-
NORTHEAST SOUTH DAKOTA

CITY           SKY/WX    TMP DP  RH WIND       PRES   REMARKS
ABERDEEN       CLOUDY    63  58  83 S6        29.96S
WATERTOWN      MOCLDY    58  54  86 S7        29.99S
BROOKINGS      CLOUDY    57  54  88 SE7       30.02S
SISSETON         N/A     55  53  93 S6        29.98F
$$

SDZ017-020-022-023-036>040-048>070-021100-
SOUTHEAST SOUTH DAKOTA

CITY           SKY/WX    TMP DP  RH WIND       PRES   REMARKS
SIOUX FALLS    CLOUDY    59  54  83 SE5       30.00S
HURON          CLOUDY    61  57  87 SE10      29.95F
MITCHELL       CLOUDY    61  58  90 SE7       29.97S
YANKTON        CLOUDY    59  54  82 E5        29.96S
$$

ABBREVIATIONS USED IN REMARKS
   TC - TEMPERATURE IN CELSIUS
  WCI - WIND CHILL INDEX
   HX - HEAT INDEX
  VSB - VISIBILITY



USA.gov is the U.S. government's official web portal to all federal, state and local government web resources and services.